Navarre High School FL US WEATHERSTEM current weather conditions

sailwx.info

Air temperature 13.8° C
Dewpoint 11.8° C

Last reported at 2020-Sep-30 06:00 UTC.
Time now 2020-Sep-30 07:10 UTC

Location: N 30°25' W 086°52'.
View on Google Maps.

See reports from other nearby stations

  
Tides and Currents Weather Stations Pressure Air Temp Water Temp Dewpoint Dewpoint Depression Visibility Wind Speed Wind Dir Waves Ship Positions
date/time (UTC)wind fromknots sea level pressurealtimeterstation pressurevisibilityair tempwater tempwave heightnotes
2020-Sep-30 06:00 13.8
2020-Sep-30 05:50 340 0 gusting 1 13.7
2020-Sep-30 05:40 340 0 gusting 1 13.8
2020-Sep-30 05:30 13.9
2020-Sep-30 05:20 340 0 gusting 0 14.2
2020-Sep-30 05:10 14.5
2020-Sep-30 05:00 14.6
2020-Sep-30 04:50 14.9
2020-Sep-30 04:40 340 0 gusting 1 15.1
2020-Sep-30 04:20 340 1 gusting 1 15.0
2020-Sep-30 04:10 340 1 gusting 2 15.1
2020-Sep-30 04:00 340 0 gusting 2 15.1
2020-Sep-30 03:50 340 0 gusting 2 15.1
2020-Sep-30 03:40 340 0 gusting 1 15.1
2020-Sep-30 03:30 340 0 gusting 1 15.2
2020-Sep-30 03:20 15.4
2020-Sep-30 03:10 340 0 gusting 1 15.6
2020-Sep-30 02:50 15.4
2020-Sep-30 02:40 15.6
2020-Sep-30 02:30 340 0 gusting 0 15.9
2020-Sep-30 02:20 16.1
2020-Sep-30 02:10 16.2
2020-Sep-30 02:00 16.4
2020-Sep-30 01:50 16.6
2020-Sep-30 01:40 340 0 gusting 1 16.9
2020-Sep-30 01:30 17.2
2020-Sep-30 01:20 17.4
2020-Sep-30 01:10 340 0 gusting 1 17.2
2020-Sep-30 01:00 340 1 gusting 1 17.4
2020-Sep-30 00:50 340 0 gusting 2 17.4
2020-Sep-30 00:40 18.0
2020-Sep-30 00:30 18.2
2020-Sep-30 00:20 18.5
2020-Sep-30 00:10 19.2
2020-Sep-30 00:00 19.4
2020-Sep-29 23:50 19.7
2020-Sep-29 23:40 340 0 gusting 2 20.1
2020-Sep-29 23:30 340 1 gusting 3 20.5
2020-Sep-29 23:20 340 0 gusting 4 20.8
2020-Sep-29 23:10 343 2 gusting 6 20.8
2020-Sep-29 23:00 022 4 gusting 6 20.8
2020-Sep-29 22:50 018 0 gusting 7 20.8
2020-Sep-29 22:40 026 4 gusting 7 20.7
2020-Sep-29 22:30 034 1 gusting 6 20.6
2020-Sep-29 22:20 344 2 gusting 6 20.5
2020-Sep-29 22:10 346 4 gusting 6 20.3
2020-Sep-29 22:00 344 2 gusting 7 20.4
2020-Sep-29 21:50 360 2 gusting 7 20.6
2020-Sep-29 21:40 342 2 gusting 12 20.7
2020-Sep-29 21:30 009 4 gusting 8 20.7
2020-Sep-29 21:20 326 2 gusting 12 20.9
2020-Sep-29 21:10 014 6 gusting 13 21.1
2020-Sep-29 21:00 352 4 gusting 12 21.3
2020-Sep-29 20:40 029 2 gusting 11 21.3
2020-Sep-29 20:30 009 6 gusting 10 21.7
2020-Sep-29 20:10 327 4 gusting 11 21.3
2020-Sep-29 20:00 333 3 gusting 13 21.3
2020-Sep-29 19:50 325 3 gusting 15 21.4
2020-Sep-29 19:30 360 3 gusting 11 21.3
2020-Sep-29 19:20 300 6 gusting 15 21.3
2020-Sep-29 19:10 297 4 gusting 15 21.9
2020-Sep-29 19:00 334 9 gusting 13 21.6
2020-Sep-29 18:50 341 1 gusting 13 21.0
2020-Sep-29 18:40 005 6 gusting 14 20.8
2020-Sep-29 18:20 333 8 gusting 12 20.6
2020-Sep-29 18:00 352 3 gusting 9 20.8
2020-Sep-29 17:50 010 4 gusting 10 21.4
2020-Sep-29 17:30 335 7 gusting 12 21.6
2020-Sep-29 17:20 352 1 gusting 9 20.9
2020-Sep-29 17:10 352 5 gusting 13 20.2
2020-Sep-29 17:00 330 9 gusting 10 20.5
2020-Sep-29 16:50 350 2 gusting 10 20.1
2020-Sep-29 16:40 012 4 gusting 7 19.8
2020-Sep-29 16:30 030 0 gusting 11 19.8
2020-Sep-29 16:20 005 3 gusting 9 19.7
2020-Sep-29 16:10 011 2 gusting 12 19.7
2020-Sep-29 16:00 029 4 gusting 11 19.6
2020-Sep-29 15:50 030 3 gusting 14 19.6
2020-Sep-29 15:40 348 14 gusting 15 19.7
2020-Sep-29 15:30 005 5 gusting 17 19.7
2020-Sep-29 15:20 342 9 gusting 15 19.7
2020-Sep-29 15:10 312 7 gusting 13 19.4
2020-Sep-29 15:00 009 3 gusting 18 19.2
2020-Sep-29 14:50 337 2 gusting 17 18.9
2020-Sep-29 14:40 340 7 gusting 11 18.9
2020-Sep-29 14:30 313 6 gusting 12 18.9
2020-Sep-29 14:20 005 2 gusting 13 19.1
2020-Sep-29 14:10 306 1 gusting 10 19.1
2020-Sep-29 14:00 009 8 gusting 12 19.1
2020-Sep-29 13:50 344 6 gusting 15 18.6
2020-Sep-29 13:40 336 4 gusting 12 18.4
2020-Sep-29 13:30 309 7 gusting 13 18.4
2020-Sep-29 13:20 339 3 gusting 13 18.5
2020-Sep-29 13:10 023 5 gusting 12 18.6
2020-Sep-29 13:00 317 7 gusting 12 18.6
2020-Sep-29 12:50 333 3 gusting 11 18.6
2020-Sep-29 12:40 352 3 gusting 13 18.5
2020-Sep-29 12:30 019 12 gusting 9 18.5
2020-Sep-29 12:20 352 3 gusting 10 18.4
2020-Sep-29 12:10 333 2 gusting 12 18.4
2020-Sep-29 12:00 350 4 gusting 13 18.6
2020-Sep-29 11:50 348 6 gusting 12 18.6
2020-Sep-29 11:40 348 1 gusting 10 18.7
2020-Sep-29 11:30 010 2 gusting 9 18.6
2020-Sep-29 11:20 027 7 gusting 9 18.7
2020-Sep-29 11:10 336 1 gusting 7 18.7
2020-Sep-29 11:00 352 4 gusting 8 18.8
2020-Sep-29 10:50 338 1 gusting 9 18.8
2020-Sep-29 10:40 304 4 gusting 9 18.9
2020-Sep-29 10:30 322 5 gusting 9 18.9
2020-Sep-29 10:20 327 7 gusting 11 19.1
2020-Sep-29 10:10 342 2 gusting 7 19.2
2020-Sep-29 10:00 352 3 gusting 8 19.2
2020-Sep-29 09:50 341 6 gusting 12 19.2
2020-Sep-29 09:40 344 6 gusting 8 19.3
2020-Sep-29 09:30 327 1 gusting 7 19.4
2020-Sep-29 09:20 346 4 gusting 9 19.4
2020-Sep-29 09:10 031 3 gusting 8 19.6
2020-Sep-29 09:00 028 1 gusting 11 19.6
2020-Sep-29 08:50 326 2 gusting 10 19.7
2020-Sep-29 08:40 332 5 gusting 8 19.7
2020-Sep-29 08:30 352 5 gusting 8 19.8
2020-Sep-29 08:20 346 3 gusting 9 19.8
2020-Sep-29 08:10 349 8 gusting 9 19.8
2020-Sep-29 07:50 296 6 gusting 9 19.9
2020-Sep-29 07:40 318 4 gusting 8 19.9
2020-Sep-29 07:30 330 2 gusting 8 19.9
2020-Sep-29 07:20 327 5 gusting 8 20.0
2020-Sep-29 07:10 337 3 gusting 8 20.1
2020-Sep-29 07:00 325 4 gusting 9 20.3
2020-Sep-29 06:50 329 5 gusting 10 20.5
2020-Sep-29 06:40 328 6 gusting 10 20.7
2020-Sep-29 06:30 307 9 gusting 10 20.9
2020-Sep-29 06:20 307 6 gusting 10 21.2
2020-Sep-29 06:10 306 4 gusting 11 21.4
2020-Sep-29 06:00 005 4 gusting 13 21.8
2020-Sep-29 05:50 350 6 gusting 10 22.3
2020-Sep-29 05:40 343 2 gusting 9 22.6
2020-Sep-29 05:30 321 3 gusting 9 22.8
2020-Sep-29 05:20 352 4 gusting 12 23.0
2020-Sep-29 05:10 348 4 gusting 9 23.1
2020-Sep-29 05:00 340 2 gusting 9 23.1
2020-Sep-29 04:50 307 9 gusting 10 23.0
2020-Sep-29 04:40 321 3 gusting 9 23.1
2020-Sep-29 04:30 314 2 gusting 9 23.2
2020-Sep-29 04:20 329 4 gusting 6 23.3
2020-Sep-29 04:10 276 6 gusting 7 23.6
2020-Sep-29 03:50 301 3 gusting 8 23.9
2020-Sep-29 03:40 308 2 gusting 7 24.1
2020-Sep-29 03:30 299 3 gusting 7 24.1
2020-Sep-29 03:20 291 3 gusting 7 24.2
2020-Sep-29 03:10 308 1 gusting 6 24.3
2020-Sep-29 03:00 292 6 gusting 5 24.5
2020-Sep-29 02:50 303 1 gusting 3 24.6
2020-Sep-29 02:40 304 2 gusting 3 24.7
2020-Sep-29 02:10 302 2 gusting 8 25.3
2020-Sep-29 02:00 279 5 gusting 9 25.6
2020-Sep-29 01:50 315 4 gusting 6 26.1
2020-Sep-29 01:40 307 3 gusting 9 26.3
2020-Sep-29 01:30 312 7 gusting 11 26.2
2020-Sep-29 01:20 304 7 gusting 9 26.4
2020-Sep-29 01:10 257 3 gusting 8 26.9
2020-Sep-29 01:00 252 6 gusting 10 26.9
2020-Sep-29 00:50 229 2 gusting 6 26.9
2020-Sep-29 00:40 244 3 gusting 7 26.9
2020-Sep-29 00:30 234 4 gusting 6 27.0
2020-Sep-29 00:20 224 2 gusting 7 27.1
2020-Sep-29 00:00 244 3 gusting 11 27.1
2020-Sep-28 23:50 247 4 gusting 9 27.2
2020-Sep-28 23:40 244 3 gusting 11 27.2
2020-Sep-28 23:30 243 5 gusting 8 27.3
2020-Sep-28 23:10 211 6 gusting 12 27.6
2020-Sep-28 22:50 212 7 gusting 10 27.9
2020-Sep-28 22:40 200 2 gusting 11 28.2
2020-Sep-28 22:30 260 3 gusting 12 28.3
2020-Sep-28 22:20 245 3 gusting 9 28.3
2020-Sep-28 21:40 184 4 gusting 9 28.3
2020-Sep-28 21:20 227 6 gusting 9 28.5
2020-Sep-28 21:10 203 6 gusting 9 28.3
2020-Sep-28 17:10 249 3 gusting 8 28.8
2020-Sep-28 17:00 214 6 gusting 8 28.8
2020-Sep-28 16:50 251 8 gusting 9 28.9
2020-Sep-28 16:40 207 4 gusting 9 28.5
2020-Sep-28 16:30 187 6 gusting 10 28.5
2020-Sep-28 16:20 197 4 gusting 11 29.0
2020-Sep-28 16:10 190 6 gusting 8 29.1
2020-Sep-28 16:00 248 2 gusting 7 28.4
2020-Sep-28 15:50 257 1 gusting 6 27.7
2020-Sep-28 15:40 264 5 gusting 6 27.4
2020-Sep-28 15:30 298 3 gusting 6 27.7
2020-Sep-28 15:20 258 2 gusting 3 27.4
2020-Sep-28 15:10 261 0 gusting 6 27.2
2020-Sep-28 15:00 299 1 gusting 11 27.6
2020-Sep-28 14:50 315 3 gusting 4 27.0
2020-Sep-28 12:50 113 1 gusting 2 22.8
2020-Sep-28 12:40 113 0 gusting 2 22.7
2020-Sep-28 12:30 113 0 gusting 1 22.6
2020-Sep-28 12:20 113 0 gusting 2 22.4
2020-Sep-28 12:10 113 0 gusting 2 22.4
2020-Sep-28 12:00 22.4
2020-Sep-28 11:50 22.4
2020-Sep-28 11:40 113 0 gusting 1 22.4
2020-Sep-28 11:30 113 0 gusting 2 22.4
2020-Sep-28 11:20 113 0 gusting 1 22.4
2020-Sep-28 11:10 22.6
2020-Sep-28 11:00 22.6
2020-Sep-28 10:50 22.6
2020-Sep-28 10:40 113 1 gusting 2 22.6
2020-Sep-28 10:30 113 0 gusting 3 22.6
2020-Sep-28 10:20 113 2 gusting 3 22.7
2020-Sep-28 10:10 113 1 gusting 2 22.8
2020-Sep-28 10:00 113 1 gusting 3 22.9
2020-Sep-28 09:50 113 2 gusting 5 22.9
2020-Sep-28 09:40 113 1 gusting 5 22.9
2020-Sep-28 09:30 113 2 gusting 5 23.0
2020-Sep-28 09:20 113 0 gusting 3 23.1
2020-Sep-28 09:10 113 1 gusting 3 23.1
2020-Sep-28 09:00 113 1 gusting 3 23.1
2020-Sep-28 08:50 113 1 gusting 3 23.2
2020-Sep-28 08:40 113 1 gusting 3 23.2
2020-Sep-28 08:30 113 0 gusting 1 23.2
2020-Sep-28 08:20 23.2
2020-Sep-28 08:10 23.2
2020-Sep-28 08:00 113 0 gusting 2 23.3
2020-Sep-28 07:50 113 0 gusting 1 23.2
2020-Sep-28 07:40 113 0 gusting 2 23.3
2020-Sep-28 07:30 113 0 gusting 1 23.3
2020-Sep-28 07:20 113 0 gusting 3 23.3
2020-Sep-28 07:10 113 1 gusting 2 23.3
2020-Sep-28 07:00 113 0 gusting 1 23.3